Time,TemperatureF,DewpointF,PressureIn,WindDirection,WindDirectionDegrees,WindSpeedMPH,WindSpeedGustMPH,Humidity,HourlyPrecipIn,Conditions,Clouds,dailyrainin,SoftwareType,DateUTC
2013-01-22 00:00:00,-5.0,-12.5,29.69,WNW,292,5.0,12.0,69,0.00,,,-99.99,Weather View 32 v60,2013-01-22 06:00:00,
2013-01-22 00:30:00,-5.0,-12.3,29.70,WNW,292,3.0,13.0,70,0.00,,,-99.99,Weather View 32 v60,2013-01-22 06:30:00,
2013-01-22 01:00:00,-6.0,-12.7,29.70,NW,315,3.0,13.0,72,0.00,,,-99.99,Weather View 32 v60,2013-01-22 07:00:00,
2013-01-22 01:30:00,-6.0,-12.4,29.71,WNW,292,10.0,10.0,73,0.00,,,-99.99,Weather View 32 v60,2013-01-22 07:30:00,
2013-01-22 02:00:00,-6.0,-12.1,29.71,NW,315,3.0,10.0,74,0.00,,,-99.99,Weather View 32 v60,2013-01-22 08:00:00,
2013-01-22 02:30:00,-6.0,-12.1,29.71,WNW,292,5.0,10.0,74,0.00,,,-99.99,Weather View 32 v60,2013-01-22 08:30:00,
2013-01-22 03:00:00,-6.0,-12.1,29.71,West,270,5.0,10.0,74,0.00,,,-99.99,Weather View 32 v60,2013-01-22 09:00:00,
2013-01-22 03:30:00,-6.0,-11.8,29.71,West,270,5.0,10.0,75,0.00,,,-99.99,Weather View 32 v60,2013-01-22 09:30:00,
2013-01-22 04:00:00,-6.0,-11.6,29.71,West,270,4.0,10.0,76,0.00,,,-99.99,Weather View 32 v60,2013-01-22 10:00:00,
2013-01-22 04:30:00,-6.0,-11.6,29.71,WNW,292,4.0,10.0,76,0.00,,,-99.99,Weather View 32 v60,2013-01-22 10:30:00,
2013-01-22 05:00:00,-6.0,-11.8,29.71,WNW,292,5.0,8.0,75,0.00,,,-99.99,Weather View 32 v60,2013-01-22 11:00:00,
2013-01-22 05:30:00,-6.0,-11.8,29.72,NNW,338,1.0,8.0,75,0.00,,,-99.99,Weather View 32 v60,2013-01-22 11:30:00,
2013-01-22 06:00:00,-6.0,-11.6,29.72,West,270,0.0,7.0,76,0.00,,,-99.99,Weather View 32 v60,2013-01-22 12:00:00,
2013-01-22 06:30:00,-6.0,-11.6,29.73,WNW,292,1.0,8.0,76,0.00,,,-99.99,Weather View 32 v60,2013-01-22 12:30:00,
2013-01-22 07:00:00,-6.0,-11.6,29.74,NW,315,3.0,8.0,76,0.00,,,-99.99,Weather View 32 v60,2013-01-22 13:00:00,
2013-01-22 07:30:00,-5.0,-11.7,29.74,West,270,4.0,11.0,72,0.00,,,-99.99,Weather View 32 v60,2013-01-22 13:30:00,
2013-01-22 08:00:00,-4.0,-11.6,29.75,NW,315,5.0,15.0,69,0.00,,,-99.99,Weather View 32 v60,2013-01-22 14:00:00,
2013-01-22 08:30:00,-4.0,-12.2,29.74,WNW,292,4.0,15.0,67,0.00,,,-99.99,Weather View 32 v60,2013-01-22 14:30:00,
2013-01-22 09:00:00,-2.0,-11.2,29.74,NW,315,5.0,13.0,64,0.00,,,-99.99,Weather View 32 v60,2013-01-22 15:00:00,
2013-01-22 09:30:00,-1.0,-11.2,29.75,WNW,292,6.0,13.0,61,0.00,,,-99.99,Weather View 32 v60,2013-01-22 15:30:00,
2013-01-22 10:00:00,0.0,-11.3,29.75,WSW,248,8.0,13.0,58,0.00,,,-99.99,Weather View 32 v60,2013-01-22 16:00:00,
2013-01-22 10:30:00,1.0,-10.3,29.75,West,270,4.0,13.0,58,0.00,,,-99.99,Weather View 32 v60,2013-01-22 16:30:00,
2013-01-22 11:00:00,1.0,-11.0,29.74,WNW,292,11.0,14.0,56,0.00,,,-99.99,Weather View 32 v60,2013-01-22 17:00:00,
2013-01-22 11:30:00,3.0,-9.5,29.73,NW,315,6.0,14.0,55,0.00,,,-99.99,Weather View 32 v60,2013-01-22 17:30:00,
2013-01-22 12:00:00,4.0,-8.9,29.72,WNW,292,10.0,16.0,54,0.00,,,-99.99,Weather View 32 v60,2013-01-22 18:00:00,
2013-01-22 12:30:00,4.0,-8.9,29.72,WNW,292,8.0,16.0,54,0.00,,,-99.99,Weather View 32 v60,2013-01-22 18:30:00,
2013-01-22 13:00:00,5.0,-8.8,29.72,WNW,292,10.0,14.0,52,0.00,,,-99.99,Weather View 32 v60,2013-01-22 19:00:00,
2013-01-22 13:30:00,6.0,-7.8,29.73,West,270,10.0,15.0,52,0.00,,,-99.99,Weather View 32 v60,2013-01-22 19:30:00,
2013-01-22 14:00:00,7.0,-7.3,29.72,WNW,292,6.0,15.0,51,0.00,,,-99.99,Weather View 32 v60,2013-01-22 20:00:00,
2013-01-22 14:30:00,6.0,-8.2,29.72,NW,315,4.0,14.0,51,0.00,,,-99.99,Weather View 32 v60,2013-01-22 20:30:00,
2013-01-22 15:00:00,6.0,-7.1,29.72,WSW,248,9.0,14.0,54,0.00,,,-99.99,Weather View 32 v60,2013-01-22 21:00:00,
2013-01-22 15:30:00,5.0,-8.0,29.72,West,270,5.0,13.0,54,0.00,,,-99.99,Weather View 32 v60,2013-01-22 21:30:00,
2013-01-22 16:00:00,5.0,-7.6,29.72,NNW,338,3.0,12.0,55,0.00,,,-99.99,Weather View 32 v60,2013-01-22 22:00:00,
2013-01-22 16:30:00,5.0,-6.9,29.72,WNW,292,1.0,10.0,57,0.00,,,-99.99,Weather View 32 v60,2013-01-22 22:30:00,
2013-01-22 17:00:00,4.0,-7.5,29.71,NNW,338,0.0,7.0,58,0.00,,,-99.99,Weather View 32 v60,2013-01-22 23:00:00,
2013-01-22 17:30:00,4.0,-7.1,29.71,SW,225,0.0,5.0,59,0.00,,,-99.99,Weather View 32 v60,2013-01-22 23:30:00,
2013-01-22 18:00:00,4.0,-6.8,29.70,WSW,248,2.0,5.0,60,0.00,,,-99.99,Weather View 32 v60,2013-01-23 00:00:00,
2013-01-22 18:30:00,5.0,-5.5,29.71,NNW,338,0.0,5.0,61,0.00,,,-99.99,Weather View 32 v60,2013-01-23 00:30:00,
2013-01-22 19:00:00,4.0,-6.4,29.70,NW,315,0.0,5.0,61,0.00,,,-99.99,Weather View 32 v60,2013-01-23 01:00:00,
2013-01-22 19:30:00,4.0,-6.4,29.69,NE,45,0.0,5.0,61,0.00,,,-99.99,Weather View 32 v60,2013-01-23 01:30:00,
2013-01-22 20:00:00,4.0,-6.1,29.70,WSW,248,0.0,5.0,62,0.00,,,-99.99,Weather View 32 v60,2013-01-23 02:00:00,
2013-01-22 20:30:00,3.0,-5.5,29.70,South,180,0.0,1.0,67,0.00,,,-99.99,Weather View 32 v60,2013-01-23 02:30:00,
2013-01-22 21:00:00,2.0,-5.8,29.70,SSE,158,0.0,0.0,69,0.00,,,-99.99,Weather View 32 v60,2013-01-23 03:00:00,
2013-01-22 21:30:00,2.0,-4.9,29.70,South,180,0.0,0.0,72,0.00,,,-99.99,Weather View 32 v60,2013-01-23 03:30:00,
2013-01-22 22:00:00,3.0,-3.4,29.70,SSW,202,0.0,1.0,74,0.00,,,-99.99,Weather View 32 v60,2013-01-23 04:00:00,
2013-01-22 22:30:00,2.0,-4.4,29.69,SW,225,0.0,1.0,74,0.00,,,-99.99,Weather View 32 v60,2013-01-23 04:30:00,
2013-01-22 23:00:00,2.0,-4.1,29.68,SW,225,0.0,0.0,75,0.00,,,-99.99,Weather View 32 v60,2013-01-23 05:00:00,
2013-01-22 23:30:00,2.0,-3.5,29.67,SSW,202,0.0,0.0,77,0.00,,,-99.99,Weather View 32 v60,2013-01-23 05:30:00,